This is the latest recevied weather packets stored in our database for station/object TAPIOLA. If no packets are shown the sender has not sent any weather packets the latest 1 day(s).
| Time | Temp. | Humidity | Pressure | Rain* | Wind** | Luminosity | Snow |
|---|---|---|---|---|---|---|---|
| 1778022439 | 2.78° C | 74% | 1009 hPa | 0 mm | 3.58 m/s, 267° | - | - |
| 1778021239 | 3.33° C | 72% | 1008.8 hPa | 0 mm | 3.58 m/s, 270° | - | - |
| 1778020038 | 3.89° C | 70% | 1008.7 hPa | 0 mm | 3.58 m/s, 280° | - | - |
| 1778018839 | 3.89° C | 69% | 1008.6 hPa | 0 mm | 3.58 m/s, 273° | - | - |
| 1778017639 | 4.44° C | 66% | 1008.5 hPa | 0 mm | 3.58 m/s, 265° | - | - |
| 1778016438 | 4.44° C | 63% | 1008.3 hPa | 0 mm | 3.58 m/s, 264° | - | - |
| 1778015238 | 4.44° C | 62% | 1008.1 hPa | 0 mm | 3.58 m/s, 258° | - | - |
| 1778014038 | 5° C | 60% | 1007.9 hPa | 0 mm | 3.58 m/s, 264° | - | - |
| 1778012839 | 5° C | 58% | 1007.6 hPa | 0 mm | 4.02 m/s, 268° | - | - |
| 1778011638 | 5.56° C | 55% | 1007.4 hPa | 0 mm | 4.47 m/s, 274° | - | - |
| 1778010438 | 6.11° C | 52% | 1007.3 hPa | 0 mm | 4.92 m/s, 269° | - | - |
| 1778009238 | 6.67° C | 48% | 1007.2 hPa | 0 mm | 4.47 m/s, 260° | - | - |
| 1778008038 | 6.67° C | 44% | 1007 hPa | 0 mm | 3.58 m/s, 257° | - | - |
| 1778006838 | 7.22° C | 42% | 1006.8 hPa | 0 mm | 4.02 m/s, 262° | - | - |
| 1778005638 | 7.78° C | 40% | 1006.5 hPa | 0 mm | 4.92 m/s, 263° | - | - |
| 1778004437 | 8.33° C | 39% | 1006.3 hPa | 0 mm | 4.92 m/s, 259° | - | - |
| 1778003237 | 8.33° C | 39% | 1006.1 hPa | 0 mm | 5.81 m/s, 260° | - | - |
| 1778002037 | 8.89° C | 37% | 1006 hPa | 0 mm | 6.26 m/s, 272° | - | - |
| 1778000837 | 8.89° C | 36% | 1005.9 hPa | 0 mm | 6.71 m/s, 264° | - | - |
| 1777999637 | 9.44° C | 36% | 1005.8 hPa | 0 mm | 6.71 m/s, 270° | - | - |
| 1777998437 | 10° C | 34% | 1005.7 hPa | 0 mm | 6.71 m/s, 266° | - | - |
| 1777997237 | 10° C | 30% | 1005.5 hPa | 0 mm | 7.6 m/s, 255° | - | - |
| 1777996037 | 10.56° C | 31% | 1005.3 hPa | 0 mm | 5.81 m/s, 268° | - | - |
| 1777994837 | 10.56° C | 33% | 1005.2 hPa | 0 mm | 6.71 m/s, 262° | - | - |
| 1777993637 | 11.11° C | 31% | 1005.1 hPa | 0 mm | 6.26 m/s, 267° | - | - |
* Rain latest hour (hover to see other rain measurements)
** Current wind speed in m/s (hover to see current wind gust speed)